{"data":{"norad_id":45131,"epoch":"2026-05-25T04:05:18.678912Z","epoch_age_seconds":57373,"freshness":"FRESH","line1":"1 45131U 20008A   26145.17035508 -.00000751  00000+0 -22177-2 0  9996","line2":"2 45131  87.8533  57.4666 0002848  73.6491 286.4949 13.09456021303050","mean_motion":13.09456021,"eccentricity":0.0002848,"inclination_deg":87.8533,"raan_deg":57.4666,"arg_perigee_deg":73.6491,"mean_anomaly_deg":286.4949,"bstar":-0.0022177,"rev_number":30305,"period_min":109.96932901193,"perigee_km":1223.0985709907,"apogee_km":1227.4294682114,"semimajor_km":7603.4010196011,"source":"CELESTRAK","updated_at":"2026-05-25T13:38:22.332446Z"}}